KALAMSAT-V2 & PSLV R/B  
1 43948U 19006B   19265.89276803  .00000889  00000-0  25478-4 0  9995
2 43948  98.8097 228.3383 0004985 127.6996 232.4692 15.39583153 37085
MICROSAT-R DEB          
1 44117U 19006C   19266.11568669  .00456002  34007-4  53358-2 0  9990
2 44117  95.2839 110.3798 0542816 159.3501 203.0607 14.72227369 25709
MICROSAT-R DEB          
1 44130U 19006R   19266.16562632  .00171878  97070-5  84540-3 0  9997
2 44130  96.3080 156.7125 0158754  67.8293 293.9730 15.65914167 27582
MICROSAT-R DEB          
1 44133U 19006U   19266.18543386  .00194166  11652-4  91534-3 0  9994
2 44133  96.4661 159.2405 0188915  58.6214 303.3374 15.61351084 27313
MICROSAT-R DEB          
1 44134U 19006V   19266.10494857  .00062703  15355-5  89416-3 0  9997
2 44134  96.0654 129.9181 0612365 155.5847 207.5720 14.53722672 25657
MICROSAT-R DEB          
1 44142U 19006AD  19266.19983433  .00253188  13423-4  22669-2 0  9996
2 44142  96.5481 145.8343 0390938 135.2584 228.0897 15.09340256 26467
MICROSAT-R DEB          
1 44147U 19006AJ  19266.45673254  .00179770  55925-5  22130-2 0  9998
2 44147  95.7403 120.8825 0633900 173.2113 187.8216 14.51710676 25159
MICROSAT-R DEB          
1 44149U 19006AL  19266.16998031  .00359628  53731-4  66272-3 0  9991
2 44149  96.0682 156.6231 0065731  60.0147 300.7635 15.97113925 27500
MICROSAT-R DEB          
1 44152U 19006AP  19245.02216082  .17396861  11507-5  20439-2 0  9994
2 44152  95.0099 111.8586 0014880 147.1823 213.0408 16.36375000 23977
MICROSAT-R DEB          
1 44153U 19006AQ  19237.28242063  .06847694  10927-5  17766-2 0  9999
2 44153  95.0137 106.1396 0019931 190.9557 169.1311 16.28104199 22747
MICROSAT-R DEB          
1 44154U 19006AR  19266.02528379  .00157539  43255-5  28885-2 0  9991
2 44154  96.6828 120.7810 0963855 251.8261  97.5749 13.73100730 23347
MICROSAT-R DEB          
1 44157U 19006AU  19266.03987260  .00374500  22473-4  33881-2 0  9992
2 44157  95.3943 112.4822 0598131 180.2890 179.8070 14.64785117 24991
MICROSAT-R DEB          
1 44160U 19006AX  19265.81877599  .00164678  41861-5  26117-2 0  9994
2 44160  95.2941 103.2119 0817745 193.9888 163.7363 14.07343205 24231
MICROSAT-R DEB          
1 44161U 19006AY  19239.42749488  .08484130  18577-5  23671-3 0  9995
2 44161  96.2365 140.2545 0011680 104.1587 256.1017 16.44537341 23513
MICROSAT-R DEB          
1 44164U 19006BB  19266.46283760  .00121283  47313-5  86790-3 0  9998
2 44164  96.6505 159.1368 0274373  87.2144 276.0469 15.37322515 26463
MICROSAT-R DEB          
1 44166U 19006BD  19266.46199079  .00205032  62938-5  34471-2 0  9992
2 44166  95.6808 110.2513 0810456 210.2157 144.9849 14.07878131 24076
MICROSAT-R DEB          
1 44179U 19006BS  19266.40202953  .00086943  35849-5  40126-3 0  9990
2 44179  96.1181 154.9278 0141311  66.3346 295.2677 15.70069024 26985
MICROSAT-R DEB          
1 44196U 19006CG  19265.84363673  .00215717  11908-4  93688-3 0  9996
2 44196  95.0890 120.9022 0270239 106.0132 257.1067 15.46924049 25312
MICROSAT-R DEB          
1 44199U 19006CK  19266.48437965  .00164653  81308-5  96915-3 0  9996
2 44199  96.6314 161.5394 0230267  72.4371 290.1895 15.49536306 25633
MICROSAT-R DEB          
1 44201U 19006CM  19266.50258534  .02745572  48849-2  72452-2 0  9992
2 44201  95.1338 114.3087 0112526 122.7865 238.4312 15.85636458 24611
MICROSAT-R DEB          
1 44202U 19006CN  19243.16115630  .13766694  23960-5  96220-3 0  9999
2 44202  97.1478 157.5084 0014196 153.8889 206.3130 16.39901617 22476
MICROSAT-R DEB          
1 44203U 19006CP  19266.15864812  .00083964  29206-5  60127-3 0  9991
2 44203  96.1287 149.4352 0234367  80.7234 282.0439 15.45084727 25610
MICROSAT-R DEB          
1 44214U 19006CQ  19266.46604924  .01727074  14528-2  36613-2 0  9991
2 44214  93.3035  77.1144 0119147  60.9913 300.3530 15.87459521 24855
MICROSAT-R DEB          
1 44216U 19006CS  19266.42235892  .00088509  35213-5  29195-3 0  9990
2 44216  95.9350 149.1802 0198444  19.5326 341.3134 15.65751090 22845
MICROSAT-R DEB          
1 44217U 19006CT  19266.15152156  .00068905  26296-5  40576-3 0  9997
2 44217  96.1546 153.5838 0172958  67.1890 294.8072 15.60093774 22724
MICROSAT-R DEB          
1 44218U 19006CU  19247.16961971  .00775836  19497-3  25435-2 0  9998
2 44218  96.2767 137.4747 0169536 123.1572 238.5512 15.71238730 19869
MICROSAT-R DEB          
1 44220U 19006CW  19266.49807218  .00214160  13809-4  10443-2 0  9994
2 44220  96.6921 162.1689 0193368  77.7384 284.5669 15.59915735 22493
MICROSAT-R DEB          
1 44221U 19006CX  19266.21065187  .00213861  22883-4  24455-3 0  9994
2 44221  96.7886 179.5898 0035705 353.3253   6.9395 16.07683735 23339
MICROSAT-R DEB          
1 44377U 19006CY  19261.48214089  .11773458 -17474-6  34374-2 0  9995
2 44377  92.2360  50.6182 0034585  94.4450 292.7740 16.25604274 20327
MICROSAT-R DEB          
1 44380U 19006DB  19261.18506396  .04919506  17068-5  10636-2 0  9991
2 44380  96.1109 153.5012 0018787  98.7494 261.5932 16.30125104 21044
MICROSAT-R DEB          
1 44381U 19006DC  19266.30356111  .00145008  31980-5  23653-2 0  9995
2 44381  94.6223  90.4294 0834177 195.7791 161.5890 14.03277735 18441
MICROSAT-R DEB          
1 44382U 19006DD  19266.06443027  .00066271  10850-5  69145-3 0  9996
2 44382  94.6890 103.6390 0505807 108.9898 256.6824 14.82258248 19545
MICROSAT-R DEB          
1 44383U 19006DE  19263.02108179  .00023863  13310-5  45263-3 0  9995
2 44383  96.1902 117.5058 0917489 223.0602 129.5170 13.82790184 17737
MICROSAT-R DEB          
1 44384U 19006DF  19240.24317528  .15013051  18839-5  80161-2 0  9995
2 44384  96.9978 131.4928 0058630 245.5556 113.9609 16.15665682 15714
MICROSAT-R DEB          
1 44444U 19006DG  19237.58412147  .03420635  17104-1  72433-2 0  9998
2 44444  95.2057  98.5163 0088523 222.9733 136.2825 15.95562029  6126
MICROSAT-R DEB          
1 44445U 19006DH  19265.47662755  .00769239  12718-3  49637-2 0  9991
2 44445  94.3557  95.1209 0360679 137.4847 225.4941 15.21521839 13005
MICROSAT-R DEB          
1 44460U 19006DJ  19266.44444410  .02406780  23495-2  94857-2 0  9990
2 44460  95.2070 112.9765 0196541 145.6199 215.7579 15.63479182 13135
MICROSAT-R DEB          
1 44463U 19006DM  19258.03736894  .00059039  16165-5  12565-2 0  9993
2 44463  95.8755  99.1078 1115467 279.0380  68.6391 13.37756731 10636
MICROSAT-R DEB          
1 44465U 19006DP  19266.13677545  .00432052  37084-4  39049-2 0  9990
2 44465  97.3546 157.7892 0404243 171.5200 189.3864 15.06374567 10162
MICROSAT-R DEB          
1 44466U 19006DQ  19254.00898439  .00375457  31992-4  24840-2 0  9991
2 44466  93.9549  85.0762 0290145 138.8086 185.3591 15.35585820  8213
MICROSAT-R DEB          
1 44467U 19006DR  19266.53141869  .01135433  27045-3  92458-2 0  9993
2 44467  95.0690 105.4924 0390876 158.3020 203.5358 15.11102977  9776
MICROSAT-R DEB          
1 44468U 19006DS  19242.59042202  .04559215  35542-1  84181-2 0  9999
2 44468  95.1587  99.0286 0078613 222.8400 106.1974 15.99579957  6707
MICROSAT-R DEB          
1 44469U 19006DT  19266.00136934  .00546848  47822-4  63100-2 0  9997
2 44469  95.3668 109.8610 0571000 170.5102 190.7989 14.66429869  9535
MICROSAT-R DEB          
1 44470U 19006DU  19266.02034299  .00221235  68758-5  38014-2 0  9990
2 44470  95.4616 101.8936 0877605 220.9998 132.2838 13.92930695  9207
MICROSAT-R DEB          
1 44471U 19006DV  19266.43349769  .00173231  84161-5  91661-3 0  9993
2 44471  95.5211 134.8696 0233344  49.1632 313.2053 15.50873661 10275
MICROSAT-R DEB          
1 44472U 19006DW  19257.05955290  .00183737  60187-5  27709-2 0  9999
2 44472  96.5345 122.8572 0718231 232.0717 121.5167 14.29824583  8182
MICROSAT-R DEB          
1 44473U 19006DX  19254.16684760  .04957119  32592-1  12035-1 0  9997
2 44473  96.9221 140.9388 0102131 204.5229 153.9627 15.91142570  7777
MICROSAT-R DEB          
1 44489U 19006EC  19254.04980228  .00686069  13692-3  36497-2 0  9999
2 44489  95.1786 105.7613 0173871 187.1692 164.7546 15.61809116  2396
MICROSAT-R DEB          
1 44490U 19006ED  19258.55197184  .06789349  89988-6  87685-2 0  9992
2 44490  95.1913 109.0821 0071963 172.5790 186.6625 16.01907688  4979
MICROSAT-R DEB          
1 44491U 19006EE  19252.54038420  .04023699  16291-1  14323-1 0  9990
2 44491  95.2429 105.2245 0143519 193.9142 165.1839 15.77481869  4065
MICROSAT-R DEB          
1 44501U 19006DZ  19256.15447274  .00334711  39186-4  10689-2 0  9993
2 44501  96.1827 147.4974 0103578  97.9240 263.3803 15.82626677  9060
MICROSAT-R DEB          
1 44502U 19006EA  19240.06139859  .00378823  28184-4  15798-2 0  9998
2 44502  95.2028  96.2394 0455432 190.8394 168.2770 15.08093497  5959
MICROSAT-R DEB          
1 44503U 19006EB  19263.76504352  .00415180  28649-4  48465-2 0  9996
2 44503  95.1801 106.5646 0527396 167.3193 194.1916 14.75571619  7343
MICROSAT-R DEB          
1 44522U 19006EF  19253.09838174  .03716558  93208-2  15166-1 0  9992
2 44522  95.2316 105.3700 0162205 188.5977 140.7247 15.70462742  8159